Flag for El Salvador Weather past 2 weeks in San Salvador, El Salvador

Now
73 °F

Sunny.


Feels Like: 70 °F
Forecast: 69 / 87 °F
Wind: 5 mph from North

Location: San Salvador / Ilopango

Current Time: May 23, 2015 at 9:01:53 AM

Latest Report: May 23, 2015 at 7:50 AM


Visibility: 10 mi

Pressure: 30.04 "Hg

Humidity: 94%

Dew point: 72 °F

Location of San SalvadorLocation

Historic Weather in San Salvador — Graph

°F

San Salvador temperature yesterday

Maximum temperature yesterday: 91 °F (at 12:50 PM)
Minimum temperature yesterday: 70 °F (at 5:50 AM)
Average temperature yesterday: 78 °F

Past Weeks' High & Low Weather Summary

 TemperatureHumidityPressure
High93 °F (May 12, 12:50 PM)100% (May 22, 8:50 PM)30.07 "Hg (May 22, 8:50 PM)
Low68 °F (May 16, 5:50 AM)44% (May 12, 2:50 PM)29.86 "Hg (May 8, 2:50 PM)
Average81 °F74%29.96 "Hg
* Reported May 8 7:50 AM — May 23 7:50 AM, San Salvador, Weather by CustomWeather, © 2015

Note: Actual official high and low records may vary slightly from our data, if they occured in-between our weather recording intervals... More about our weather records

Advertising

San Salvador weather history for previous 24 hours

 ConditionsComfort  
Time TempWeatherWind HumidityBarometerVisibility
7:50 AM
Sat, May 23
73 °FSunny.5 mph94%30.04 "Hg10 mi
6:50 AM72 °FSunny.3 mph94%30.07 "Hg10 mi
5:50 AM70 °FSnow. Fog.9 mph100%30.04 "HgN/A
11:50 PM
Fri, May 22
70 °FThunderstorms. Partly cloudy.No wind100%30.07 "Hg5 mi
10:50 PM72 °FThunderstorms. Passing clouds.5 mph94%30.07 "HgN/A
9:50 PM72 °FThunderstorms. Passing clouds.5 mph94%30.07 "Hg5 mi
8:50 PM72 °FThunderstorms. Passing clouds.5 mph100%30.04 "HgN/A
7:50 PM72 °FPassing clouds.No wind94%30.01 "HgN/A
6:50 PM72 °FRain. Passing clouds.6 mph88%29.98 "HgN/A
5:50 PM73 °FThunderstorms. Passing clouds.3 mph89%29.98 "Hg2 mi
4:50 PM84 °FThundershowers. Scattered clouds.10 mph70%29.95 "HgN/A
3:50 PM86 °FPassing clouds.12 mph70%29.92 "HgN/A
2:50 PM90 °FScattered clouds.17 mph52%29.92 "HgN/A
1:50 PM90 °FPassing clouds.5 mph55%29.95 "HgN/A
12:50 PM91 °FSunny.9 mph56%29.98 "Hg10 mi
10:50 AM86 °FSunny.10 mph62%30.01 "Hg10 mi
9:50 AM79 °FSunny.9 mph79%30.04 "Hg10 mi
Weather by CustomWeather, © 2015

See weather overviewHow to use our weather pages